Orbital Elements at Epoch 2459200.5 (2020-Dec-17.0) TDB
Reference: JPL 22 (heliocentric ecliptic J2000)
Element | Value | Uncertainty (1-sigma) | Units |
e | .1490878719661995 | 3.1485e-08 | |
a | 2.313199420508465 | 8.747e-09 | au |
q | 1.968329441471412 | 7.2142e-08 | au |
i | 4.483481873897525 | 4.2374e-06 | deg |
node | 165.5732721396594 | 4.5613e-05 | deg |
peri | 114.9750254524683 | 4.7725e-05 | deg |
M | 190.1673987021716 | 1.4433e-05 | deg |
tp | 2459806.728849632522 (2022-Aug-15.22884963) | 5.2151e-05 | TDB |
period | 1285.044121093013 3.52 | 7.2888e-06 1.996e-08 | d yr |
n | .2801460230749094 | 1.589e-09 | deg/d |
Q | 2.658069399545518 | 1.0051e-08 | au |
|
| | Orbit Determination Parameters
Additional Information
|